Location: Unspecified
(50.1700°N, 6.8600°E)
Time: 05:23:20
(UTC+00:00)

CZ-4B R/B - Pass Details

Date: 24 January 2019
Orbit: 808 x 882 km, 99.1° (Epoch: 21 October)

Event Time Altitude Azimuth Distance (km) Brightness Sun altitude
Rises 06:17:59 0° 7° (N) 3,401 6.2 -9.5°
Reaches altitude 10° 06:20:51 10° 353° (N) 2,449 5.4 -9.1°
Maximum altitude 06:24:51 22° 305° (NW) 1,747 4.3 -8.5°
Drops below altitude 10° 06:28:48 10° 256° (WSW) 2,410 5.1 -7.9°
Sets 06:31:36 0° 242° (WSW) 3,330 5.9 -7.5°
